Location: Ellerstadt
(49.4644°N, 8.2615°E)
Time: 11:45:31
(UTC+00:00)

Okean 1 - Pass Details

Date: 03 March 2021
Orbit: 539 x 554 km, 82.5° (Epoch: 13 April)

Event Time Altitude Azimuth Distance (km) Brightness Sun altitude
Rises 17:52:33 0° 352° (N) 2,732 7.0 -7.2°
Reaches altitude 10° 17:54:45 10° 356° (N) 1,836 6.0 -7.5°
Maximum altitude 17:58:46 62° 78° (ENE) 625 3.3 -8.2°
Drops below altitude 10° 18:02:45 10° 160° (SSE) 1,829 5.8 -8.8°
Sets 18:04:56 0° 163° (SSE) 2,719 6.7 -9.2°
